Waarnemingen

Advertentie
Mijn weer
Eskdalemuir, Groot Brittannië (3162): temperatuur & dauwpunt: 19.11.2017 01:00:00 - 25.11.2017 01:00:00 (GMT)Eskdalemuir, Groot Brittannië (3162): windsnelheid & windstoten: 19.11.2017 01:00:00 - 25.11.2017 01:00:00 (GMT)Eskdalemuir, Groot Brittannië (3162): windrichting: 19.11.2017 01:00:00 - 25.11.2017 01:00:00 (GMT)Eskdalemuir, Groot Brittannië (3162): luchtdruk: 19.11.2017 01:00:00 - 25.11.2017 01:00:00 (GMT)Eskdalemuir, Groot Brittannië (3162): zicht: 19.11.2017 01:00:00 - 25.11.2017 01:00:00 (GMT)Eskdalemuir, Groot Brittannië (3162): Zonneschijnduur: 19.11.2017 01:00:00 - 25.11.2017 01:00:00 (GMT)Eskdalemuir, Groot Brittannië (3162): neerslag: 19.11.2017 01:00:00 - 25.11.2017 01:00:00 (GMT)
Datum & Tijd tt [°C] td [°C] ff [km/u] ff [kn] fx [km/u] fx [kn] dd ppp [hPa] vv [km] sd [min] rr [mm]
25.11.2017 01:00:00 0,9 0,0 18 10 - - W 1009,4 35 0 -
25.11.2017 00:00:00 -0,9 -1,3 2 1 - - Z 1009,8 40 - 0,0
24.11.2017 23:00:00 -0,2 -0,6 9 5 - - Z 1009,4 20 0 0,0
24.11.2017 22:00:00 -0,2 -0,7 11 6 - - ZZW 1009,5 50 0 0,0
24.11.2017 21:00:00 0,2 -0,3 11 6 - - ZZO 1009,4 50 0 0,0
24.11.2017 20:00:00 -0,6 -0,9 8 4 - - ZZO 1009,3 50 0 0,0
24.11.2017 19:00:00 -0,6 -1,4 4 2 - - ZZO 1009,4 50 0 0,0
24.11.2017 18:00:00 0,3 -0,8 11 6 - - WZW 1008,3 50 0 0,0
24.11.2017 17:00:00 0,7 0,2 4 2 - - WNW 1008,3 20 0 0,0
24.11.2017 16:00:00 1,1 0,3 4 2 - - ZZO 1007,7 50 0 0,0
24.11.2017 15:00:00 1,9 0,3 13 7 - - WZW 1007,8 50 12 0,4
24.11.2017 14:00:00 2,5 0,5 21 11 - - ZW 1007,6 40 30 0,0
24.11.2017 13:00:00 1,9 0,5 16 9 - - ZW 1008,1 35 18 0,0
24.11.2017 12:00:00 1,1 0,1 15 8 - - Z 1008,1 10 12 0,0
24.11.2017 11:00:00 0,1 -0,7 9 5 - - ZZO 1008,5 4,0 12 0,0
24.11.2017 10:00:00 0,1 -0,9 9 5 - - Z 1008,0 3,0 42 0,0
24.11.2017 09:00:00 -0,8 -1,5 0 0 - - N 1007,8 0,8 0 0,0
24.11.2017 08:00:00 0,0 -0,3 0 0 - - N 1007,0 5 0 0,0
24.11.2017 07:00:00 -0,2 -0,6 9 5 - - ZW 1006,3 50 0 0,0
24.11.2017 06:00:00 0,1 -0,2 0 0 - - N 1005,6 3,1 0 0,0
24.11.2017 05:00:00 0,0 -0,4 0 0 - - N 1005,5 15 0 0,0
24.11.2017 04:00:00 0,2 -0,1 8 4 - - Z 1004,7 50 0 0,0
24.11.2017 03:00:00 -0,5 -1,0 0 0 - - N 1004,2 50 0 0,0
24.11.2017 02:00:00 -0,2 -0,7 2 1 - - Z 1003,8 50 0 0,0
24.11.2017 01:00:00 0,2 -0,3 9 5 - - Z 1003,4 14 0 0,0
24.11.2017 00:00:00 0,3 -0,3 11 6 - - ZZW 1003,1 50 - 0,0
23.11.2017 23:00:00 0,4 0,0 8 4 - - Z 1002,8 50 0 0,0
23.11.2017 22:00:00 0,4 -0,1 5 3 - - ZO 1002,1 50 0 0,4
23.11.2017 21:00:00 1,0 -0,1 13 7 - - WZW 1001,9 6 0 0,4
23.11.2017 20:00:00 1,0 0,1 15 8 - - WZW 1001,1 1,9 0 0,8
23.11.2017 19:00:00 1,3 0,3 8 4 - - ZZO 999,6 50 0 0,0
23.11.2017 18:00:00 1,2 0,1 4 2 - - ZZO 997,7 50 0 0,0
23.11.2017 17:00:00 2,0 0,7 8 4 - - ZZO 996,4 50 0 0,0
23.11.2017 16:00:00 2,4 0,2 4 2 - - ONO 994,2 50 0 0,0
23.11.2017 15:00:00 2,8 -0,4 8 4 - - W 992,8 50 24 0,0
23.11.2017 14:00:00 3,9 -0,1 9 5 - - W 990,5 50 0 0,0
23.11.2017 13:00:00 4,5 1,6 11 6 - - W 988,3 40 6 0,0
23.11.2017 12:00:00 4,5 1,3 8 4 - - NW 986,5 45 18 0,0
23.11.2017 11:00:00 4,2 1,7 11 6 - - WZW 985,0 18 24 0,0
23.11.2017 10:00:00 2,5 0,8 15 8 - - ZW 984,4 25 0 0,2
23.11.2017 09:00:00 1,1 0,4 8 4 - - ZZO 984,0 22 0 0,0
23.11.2017 08:00:00 1,0 0,4 11 6 - - ZZW 983,8 25 0 0,0
23.11.2017 07:00:00 2,0 0,6 16 9 - - ZW 982,8 45 0 0,0
23.11.2017 06:00:00 2,4 -0,2 16 9 - - ZW 982,0 50 0 0,0
23.11.2017 05:00:00 3,0 0,8 18 10 - - WZW 981,2 50 0 0,0
23.11.2017 04:00:00 3,5 2,1 15 8 - - WZW 980,1 28 0 0,8
23.11.2017 03:00:00 4,1 2,9 11 6 - - W 979,3 26 0 0,8
23.11.2017 02:00:00 4,9 4,5 2 1 - - WZW 978,2 50 0 -
23.11.2017 01:00:00 5,3 4,8 9 5 - - W 978,5 10 0 0,4
23.11.2017 00:00:00 5,3 4,8 2 1 - - ZZO 978,4 24 - -
22.11.2017 23:00:00 5,4 4,7 4 2 - - N 978,3 23 0 1,2
22.11.2017 22:00:00 5,5 4,7 8 4 - - NNW 978,5 16 0 2,4
22.11.2017 21:00:00 5,7 4,9 8 4 - - N 978,7 7 0 2,2
22.11.2017 20:00:00 5,9 5,2 9 5 - - N 979,2 12 0 1,2
22.11.2017 19:00:00 6,2 5,7 11 6 - - N 980,0 9 0 0,2
22.11.2017 18:00:00 6,8 6,3 5 3 - - N 980,6 19 0 0,2
22.11.2017 17:00:00 7,1 6,7 0 0 - - N 980,7 20 0 0,4
22.11.2017 16:00:00 7,3 6,8 5 3 - - NNW 980,6 14 0 1,2
22.11.2017 15:00:00 7,4 6,9 8 4 - - N 980,5 8 0 0,8
22.11.2017 14:00:00 7,4 7,0 5 3 - - N 981,5 4,5 0 2,4
22.11.2017 13:00:00 7,5 7,0 8 4 - - N 982,2 4,0 0 3,2
22.11.2017 12:00:00 7,5 7,1 2 1 - - NO 983,2 5 0 2,8
22.11.2017 11:00:00 7,8 7,4 4 2 - - ONO 984,4 8 0 1,4
22.11.2017 10:00:00 7,9 7,5 4 2 - - OZO 986,6 8 0 2,2
22.11.2017 09:00:00 8,2 7,6 5 3 - - ZO 987,1 9 0 2,0
22.11.2017 08:00:00 8,7 7,9 16 9 - - ZW 988,2 10 0 1,8
22.11.2017 07:00:00 9,0 8,2 16 9 - - ZZW 988,9 8 0 3,0
22.11.2017 06:00:00 9,1 8,3 22 12 - - ZW 989,9 7 0 1,8
22.11.2017 05:00:00 9,1 8,0 28 15 - - ZW 990,3 6 0 0,0
22.11.2017 04:00:00 9,2 8,0 24 13 48 26 ZW 990,9 12 0 0,0
22.11.2017 03:00:00 9,4 7,9 29 16 50 27 ZW 992,0 12 0 0,0
22.11.2017 02:00:00 9,4 7,8 31 17 54 29 WZW 992,1 16 0 0,0
22.11.2017 01:00:00 9,3 7,5 34 18 55 30 WZW 992,6 23 0 0,0
22.11.2017 00:00:00 9,4 7,4 39 21 57 31 ZW 992,8 30 - 0,0
21.11.2017 23:00:00 9,7 7,8 37 20 50 27 ZW 992,9 45 0 0,0
21.11.2017 22:00:00 10,6 8,9 26 14 46 25 ZW 993,6 50 0 0,0
21.11.2017 21:00:00 10,8 9,3 29 16 54 29 ZW 993,5 45 0 0,0
21.11.2017 20:00:00 11,3 10,2 28 15 48 26 ZW 994,0 30 0 0,6
21.11.2017 19:00:00 11,1 10,6 28 15 - - ZW 994,5 3,2 0 1,4
21.11.2017 18:00:00 10,7 10,4 24 13 - - ZZW 995,2 2,0 0 1,0
21.11.2017 17:00:00 10,5 10,1 21 11 - - ZZW 996,2 2,5 0 0,8
21.11.2017 16:00:00 10,1 9,6 21 11 - - ZZW 997,5 3,2 0 0,6
21.11.2017 15:00:00 9,9 9,4 28 15 48 26 ZZW 998,5 8 0 -
21.11.2017 14:00:00 10,1 10,0 31 17 48 26 ZZW 999,4 2,0 0 0,0
21.11.2017 13:00:00 10,5 10,3 18 10 - - ZZW 1000,5 6 0 0,6
21.11.2017 12:00:00 9,7 9,6 4 2 - - ZO 1001,7 0,8 0 0,6
21.11.2017 11:00:00 9,4 9,2 8 4 - - Z 1002,9 1,5 0 -
21.11.2017 10:00:00 9,4 9,2 9 5 - - ZZW 1004,2 2,0 0 -
21.11.2017 09:00:00 9,0 8,8 8 4 - - Z 1004,1 12 0 1,8
21.11.2017 08:00:00 8,9 8,7 4 2 - - ZO 1004,9 6 0 1,0
21.11.2017 07:00:00 8,2 8,0 0 0 - - N 1004,9 1,7 0 1,4
21.11.2017 06:00:00 8,2 8,0 0 0 - - N 1005,4 0,4 0 0,4
21.11.2017 05:00:00 8,1 8,0 0 0 - - N 1005,6 0,1 0 0,0
21.11.2017 04:00:00 8,2 8,0 2 1 - - NNO 1005,9 0,1 0 0,0
21.11.2017 03:00:00 8,2 8,0 0 0 - - N 1006,2 0,1 0 0,0
21.11.2017 02:00:00 8,3 8,1 0 0 - - N 1006,8 0,3 0 0,0
21.11.2017 01:00:00 8,5 8,3 0 0 - - N 1007,3 0,2 0 0,4
21.11.2017 00:00:00 8,6 8,4 8 4 - - Z 1007,6 0,5 - 0,0
20.11.2017 23:00:00 8,6 8,3 8 4 - - ZZW 1007,7 8 0 0,0
20.11.2017 22:00:00 8,5 8,2 5 3 - - ZZW 1007,9 10 0 0,0
20.11.2017 21:00:00 8,6 8,3 8 4 - - ZW 1007,9 45 0 0,2
20.11.2017 20:00:00 8,7 8,4 5 3 - - ZZW 1007,9 28 0 0,2
20.11.2017 19:00:00 9,0 8,7 4 2 - - ZZW 1007,9 2,2 0 0,6
20.11.2017 18:00:00 9,5 8,7 5 3 - - WZW 1007,6 20 0 0,0
20.11.2017 17:00:00 9,4 8,5 11 6 - - W 1007,3 25 0 0,2
20.11.2017 16:00:00 9,5 8,5 15 8 - - W 1007,0 20 0 0,0
20.11.2017 15:00:00 10,3 8,9 16 9 - - W 1006,7 25 0 0,0
20.11.2017 14:00:00 10,4 9,3 15 8 - - W 1006,3 5 0 0,6
20.11.2017 13:00:00 9,9 9,3 11 6 - - ZZW 1006,1 7 0 1,2
20.11.2017 12:00:00 9,8 9,0 13 7 - - WZW 1006,1 3,5 0 0,6
20.11.2017 11:00:00 9,2 8,7 16 9 - - ZW 1006,4 5 0 2,2
20.11.2017 10:00:00 4,5 4,3 2 1 - - O 1007,0 3,5 0 2,0
20.11.2017 09:00:00 3,9 3,7 0 0 - - N 1007,4 2,5 0 2,0
20.11.2017 08:00:00 3,6 3,4 0 0 - - N 1007,7 1,7 0 0,2
20.11.2017 07:00:00 3,4 3,1 2 1 - - OZO 1007,9 0,8 0 0,2
20.11.2017 06:00:00 3,6 3,2 2 1 - - N 1008,5 4,5 0 0,4
20.11.2017 05:00:00 3,1 2,8 4 2 - - NW 1009,5 1,8 0 0,4
20.11.2017 04:00:00 3,0 2,7 2 1 - - NNW 1010,6 4,1 0 0,8
20.11.2017 03:00:00 2,7 2,4 2 1 - - NNW 1012,1 2,0 0 0,4
20.11.2017 02:00:00 2,3 2,0 4 2 - - NNW 1013,4 3,3 0 1,0
20.11.2017 01:00:00 1,8 1,5 0 0 - - N 1014,4 3,4 0 1,6
20.11.2017 00:00:00 1,7 1,4 0 0 - - N 1015,9 3,5 - -
19.11.2017 23:00:00 1,5 1,1 4 2 - - N 1017,3 4,1 0 1,2
19.11.2017 22:00:00 1,4 1,0 0 0 - - N 1018,8 1,7 0 0,6
19.11.2017 21:00:00 1,3 0,8 0 0 - - N 1019,8 1,8 0 0,2
19.11.2017 20:00:00 1,3 0,7 0 0 - - N 1020,4 7 0 0,4
19.11.2017 19:00:00 1,2 0,4 0 0 - - N 1020,9 25 0 0,0
19.11.2017 18:00:00 1,0 0,1 0 0 - - N 1021,2 27 0 0,0
19.11.2017 17:00:00 1,4 0,3 0 0 - - N 1021,7 30 0 0,0
19.11.2017 16:00:00 1,8 0,4 0 0 - - N 1022,1 35 0 0,0
19.11.2017 15:00:00 2,3 0,4 4 2 - - ZO 1022,2 40 0 0,0
19.11.2017 14:00:00 2,2 0,1 5 3 - - ZZO 1022,8 50 0 0,0
19.11.2017 13:00:00 2,4 0,0 4 2 - - ZZO 1023,1 35 0 0,0
19.11.2017 12:00:00 2,5 -0,4 5 3 - - ZZO 1023,4 30 48 0,0
19.11.2017 11:00:00 1,5 -3,0 2 1 - - O 1023,7 45 60 0,0
19.11.2017 10:00:00 -0,1 -3,0 2 1 - - ZZO 1023,7 35 60 0,0
19.11.2017 09:00:00 -1,3 -2,5 4 2 - - ZZW 1023,6 40 30 0,0
19.11.2017 08:00:00 -1,9 -3,7 2 1 - - ZW 1023,4 45 0 0,0
19.11.2017 07:00:00 -1,7 -2,9 8 4 - - OZO 1023,1 30 0 0,0
19.11.2017 06:00:00 0,1 -2,3 5 3 - - NNW 1022,9 45 0 0,0
19.11.2017 05:00:00 -0,1 -2,4 4 2 - - NNW 1022,7 35 0 0,0
19.11.2017 04:00:00 0,6 -1,6 16 9 - - NW 1022,4 45 0 0,0
19.11.2017 03:00:00 0,2 -2,9 16 9 - - WNW 1022,5 30 0 0,0
19.11.2017 02:00:00 1,9 -2,1 8 4 - - NNO 1022,1 40 0 0,0
19.11.2017 01:00:00 0,7 -2,7 8 4 - - O 1022,2 30 0 0,0

tt = temperatuur
td = dauwpunt
ff = windsnelheid
fx = windstoten
dd = windrichting
ppp = luchtdruk
vv = zicht
sd = Zonneschijnduur
rr = neerslag

Weerstations in de omgeving